Home   Weather   Milton Keynes   Past weeks

Flag for United Kingdom Past Weather in Milton Keynes, England, United Kingdom — Yesterday and Last 2 Weeks

Now
48 °F

Fog.


Feels Like: 47 °F
Forecast: 44 / 60 °F
Wind: 3 mph from South

Location: Luton Airport

Current Time: Oct 1, 2016 at 4:13:04 AM

Latest Report: Oct 1, 2016 at 3:20 AM


Visibility: 3 mi

Pressure: 29.74 "Hg

Humidity: 100%

Dew Point: 48 °F

Location of Milton KeynesLocation

Past Weather in Milton Keynes — Graph

°F

Milton Keynes Temperature Yesterday

Maximum temperature yesterday: 64 °F (at 1:50 PM)
Minimum temperature yesterday: 48 °F (at 5:50 AM)
Average temperature yesterday: 55 °F

High & Low Weather Summary for the Past Weeks

 TemperatureHumidityPressure
High70 °F (Sep 24, 1:50 PM)100% (Sep 16, 5:20 AM)30.27 "Hg (Sep 16, 5:20 AM)
Low46 °F (Sep 23, 2:50 AM)49% (Sep 23, 12:50 PM)29.74 "Hg (Oct 1, 2:50 AM)
Average59 °F84%30.07 "Hg
* Reported Sep 16 2:20 AM — Oct 1 2:50 AM, Milton Keynes, Weather by CustomWeather, © 2016

Note: Actual official high and low records may vary slightly from our data, if they occured in-between our weather recording intervals... More about our weather records

Advertising

Milton Keynes Weather History for the Previous 24 Hours

Scroll right to see more
 ConditionsComfort  
Time TempWeatherWind HumidityBarometerVisibility
2:50 AM
Sat, Oct 1
48 °FCool.3 mph100%29.74 "Hg5 mi
2:20 AM48 °FFog.3 mph100%29.77 "Hg1 mi
1:50 AM48 °FCool.2 mph94%29.77 "HgN/A
1:20 AM48 °FCool.2 mph94%29.77 "Hg4 mi
12:50 AM48 °FCool.5 mph100%29.80 "Hg5 mi
12:20 AM50 °FCool.3 mph94%29.80 "HgN/A
11:50 PM
Fri, Sep 30
50 °FPassing clouds.3 mph100%29.80 "HgN/A
11:20 PM52 °FCool.3 mph94%29.83 "HgN/A
10:50 PM52 °FCool.3 mph94%29.83 "HgN/A
10:20 PM54 °FPassing clouds.5 mph88%29.83 "HgN/A
9:50 PM54 °FCool.5 mph82%29.83 "HgN/A
9:20 PM54 °FCool.5 mph82%29.86 "HgN/A
8:50 PM55 °FCool.5 mph77%29.86 "HgN/A
8:20 PM55 °FPassing clouds.5 mph72%29.86 "HgN/A
7:50 PM55 °FCool.3 mph72%29.83 "HgN/A
7:20 PM55 °FCool.6 mph72%29.83 "HgN/A
6:50 PM55 °FPassing clouds.5 mph67%29.83 "HgN/A
6:20 PM57 °FCool.7 mph63%29.83 "HgN/A
5:50 PM59 °FPassing clouds.7 mph63%29.83 "HgN/A
5:20 PM61 °FRefreshingly cool.10 mph59%29.83 "HgN/A
4:50 PM61 °FScattered clouds.13 mph59%29.83 "HgN/A
4:20 PM61 °FPassing clouds.12 mph59%29.83 "HgN/A
3:50 PM61 °FPartly sunny.14 mph59%29.86 "HgN/A
3:20 PM61 °FScattered clouds.13 mph59%29.86 "HgN/A
2:50 PM64 °FPartly sunny.16 mph52%29.86 "HgN/A
2:20 PM63 °FPartly sunny.14 mph56%29.86 "HgN/A
1:50 PM64 °FPartly sunny.15 mph52%29.86 "HgN/A
1:20 PM63 °FPartly sunny.14 mph59%29.86 "HgN/A
12:50 PM63 °FPassing clouds.14 mph59%29.89 "HgN/A
12:20 PM63 °FScattered clouds.14 mph59%29.89 "HgN/A
11:50 AM61 °FScattered clouds.15 mph63%29.89 "HgN/A
11:20 AM59 °FPartly sunny.17 mph68%29.89 "HgN/A
10:50 AM57 °FPartly sunny.10 mph72%29.89 "HgN/A
10:20 AM59 °FBroken clouds.10 mph72%29.89 "HgN/A
9:50 AM55 °FCool.12 mph82%29.89 "HgN/A
9:20 AM55 °FCool.9 mph82%29.89 "HgN/A
8:50 AM54 °FCool.8 mph88%29.89 "HgN/A
8:20 AM50 °FCool.8 mph100%29.89 "HgN/A
7:50 AM48 °FCool.8 mph100%29.89 "HgN/A
7:20 AM48 °FCool.7 mph94%29.89 "HgN/A
6:50 AM48 °FCool.6 mph94%29.89 "HgN/A
6:20 AM48 °FCool.6 mph100%29.89 "HgN/A
5:50 AM48 °FCool.6 mph100%29.89 "HgN/A
5:20 AM50 °FCool.5 mph94%29.89 "HgN/A
4:50 AM50 °FCool.5 mph94%29.89 "HgN/A
4:20 AM50 °FCool.3 mph94%29.89 "HgN/A
Weather by CustomWeather, © 2016

See weather overviewHow to use our weather pages